Weather in Fedorovskoye

Russia / Kostroma Oblast     57°25′00″N   40°33′29″E
temp.,
°C
wind,
m/s
gust,
m/s
humid.,
%
clouds,
%
prec.,
mm/h
press.,
hPa
HPBL,
m
7 march, sun
sun700:00−15ssw45920 0.0 101071
03:00−14s5109114 0.0 1007163
06:00−10s7148899 0.0 1002423
09:00−8ssw9159299 0.3 997786
12:00−5ssw91492100 0.7 993939
15:00−3ssw81294100 1.6 991859
18:00−6wnw4979100 1.1 991222
21:00−10w2275100 1.1 99121
8 march, mon
mon800:00−12wsw1172100 0.0 99121
03:00−13wsw238994 0.0 99341
06:00−14wsw239381 0.0 99320
09:00−12nnw119243 0.0 99448
12:00−8n248760 0.0 997358
15:00−7nnw578675 0.1 1000823
18:00−9nnw5993100 0.3 1002395
21:00−13nnw489598 0.3 1006192
9 march, tue
tue900:00−15nnw479688 0.1 1008167
03:00−19nnw469880 0.1 1010119
06:00−23nnw349979 0.0 101267
09:00−21nnw469675 0.0 1015252
12:00−17nnw459184 0.0 1015405
15:00−15nnw468892 0.1 1017606
18:00−18nnw3795100 0.1 1018140
21:00−23nnw469798 0.1 102189
10 march, wed
wed1000:00−25nnw349850 0.0 102246
03:00−27nnw349725 0.0 102332
06:00−28nnw33970 0.0 102530
09:00−25n24950 0.0 1026173
12:00−19nw34850 0.0 1026386
15:00−16wnw458614 0.0 1025470
18:00−18wnw45927 0.0 102592
21:00−21wnw47943 0.0 102699
11 march, thu
thu1100:00−22wnw46960 0.0 102686
03:00−22w44940 0.0 102773
06:00−23w34927 0.0 102753
09:00−19w358725 0.0 1027150
12:00−12wsw34760 0.0 1026313
15:00−9ssw34710 0.0 1025433
18:00−13s44850 0.0 102365
21:00−14s512904 0.0 1022267